User: anonymous   Login
Location: Albuquerque Trailhead
(34.7934°N, 106.3736°W)
Time: 21:25:58
(UTC+00:00)
Language:

XW-2C - Orbit

View from above orbital plane
View from above orbital plane
View from above satellite
View from above satellite

Ground track
Ground track

The orbit data is extracted from the following two-line orbital elements,

1 40906U 15049H   23090.51931963  .00017490  00000-0  71529-3 0  9997
2 40906  97.4974  97.5012 0014589  77.8575  74.2534 15.24310882416551
Epoch (UTC): 31 March 2023 12:27:49
Eccentricity: 0.0014589
inclination: 97.4974°
perigee height: 483 km
apogee height: 503 km
right ascension of ascending node: 97.5012°
argument of perigee: 77.8575°
revolutions per day: 15.24310882
mean anomaly at epoch: 74.2534°
orbit number at epoch: 41655

The dashed part of the orbit path shows where the satellite is in the earth's shadow,  

DLR